H1 CPF 2 NER 2023 9 2 9 245 01 glonass141 H2 1908801 9141 44850 2023 9 2 0 0 0 2023 9 5 23 45 0 900 1 1 0 0 0 1 H9 10 0 60189 0.00000 0 10797806.450 -21286327.287 8999487.914 10 0 60189 900.00000 0 11193971.245 -22132387.781 5948423.196 10 0 60189 1800.00000 0 11329018.578 -22677923.691 2781766.883 10 0 60189 2700.00000 0 11242958.169 -22882803.737 -438964.636 10 0 60189 3600.00000 0 10983713.177 -22717847.352 -3651156.297 10 0 60189 4500.00000 0 10604871.044 -22166170.611 -6792316.696 10 0 60189 5400.00000 0 10163201.878 -21224033.305 -9801301.276 10 0 60189 6300.00000 0 9716050.173 -19901149.728 -12619511.673 10 0 60189 7200.00000 0 9318711.246 -18220448.458 -15192046.764 10 0 60189 8100.00000 0 9021904.680 -16217289.884 -17468781.947 10 0 60189 9000.00000 0 8869452.968 -13938173.264 -19405354.680 10 0 60189 9900.00000 0 8896264.841 -11438986.888 -20964036.253 10 0 60189 10800.00000 0 9126709.729 -8782874.307 -22114472.256 10 0 60189 11700.00000 0 9573453.022 -6037805.779 -22834277.018 10 0 60189 12600.00000 0 10236802.072 -3273956.533 -23109470.313 10 0 60189 13500.00000 0 11104591.057 -561001.411 -22934747.959 10 0 60189 14400.00000 0 12152609.842 2034561.210 -22313581.281 10 0 60189 15300.00000 0 13345558.809 4451944.746 -21258143.851 10 0 60189 16200.00000 0 14638489.299 6638363.658 -19789067.358 10 0 60189 17100.00000 0 15978668.756 8550981.932 -17935031.794 10 0 60189 18000.00000 0 17307791.628 10158440.512 -15732198.424 10 0 60189 18900.00000 0 18564442.558 11441901.369 -13223497.089 10 0 60189 19800.00000 0 19686707.723 12395566.340 -10457782.206 10 0 60189 20700.00000 0 20614824.042 13026651.011 -7488874.506 10 0 60189 21600.00000 0 21293754.438 13354816.950 -4374507.703 10 0 60189 22500.00000 0 21675580.652 13411088.349 -1175201.154 10 0 60189 23400.00000 0 21721612.935 13236300.718 2046919.024 10 0 60189 24300.00000 0 21404128.062 12879148.855 5229327.055 10 0 60189 25200.00000 0 20707662.917 12393917.812 8310309.128 10 0 60189 26100.00000 0 19629809.705 11837993.649 11230155.967 10 0 60189 27000.00000 0 18181479.821 11269259.502 13932313.430 10 0 60189 27900.00000 0 16386625.551 10743486.957 16364469.366 10 0 60189 28800.00000 0 14281431.401 10311832.347 18479556.398 10 0 60189 29700.00000 0 11913008.593 10018542.901 20236652.236 10 0 60189 30600.00000 0 9337646.647 9898968.518 21601761.220 10 0 60189 31500.00000 0 6618694.000 9977962.033 22548463.121 10 0 60189 32400.00000 0 3824154.514 10268734.579 23058417.732 10 0 60189 33300.00000 0 1024098.176 10772213.782 23121716.338 10 0 60189 34200.00000 0 -1712008.224 11476931.799 22737073.799 10 0 60189 35100.00000 0 -4317941.544 12359448.400 21911857.675 10 0 60189 36000.00000 0 -6733226.029 13385292.298 20661953.515 10 0 60189 36900.00000 0 -8905397.963 14510382.505 19011468.228 10 0 60189 37800.00000 0 -10791938.422 15682871.618 16992276.217 10 0 60189 38700.00000 0 -12361794.649 16845335.177 14643415.731 10 0 60189 39600.00000 0 -13596427.200 17937216.535 12010345.776 10 0 60189 40500.00000 0 -14490339.380 18897425.561 9144076.580 10 0 60189 41400.00000 0 -15051066.801 19666982.455 6100189.315 10 0 60189 42300.00000 0 -15298627.319 20191595.432 2937763.215 10 0 60189 43200.00000 0 -15264454.256 20424063.169 -281769.540 10 0 60189 44100.00000 0 -14989857.693 20326399.712 -3495819.042 10 0 60189 45000.00000 0 -14524078.752 19871590.765 -6641859.349 10 0 60189 45900.00000 0 -13922019.345 19044905.559 -9658652.233 10 0 60189 46800.00000 0 -13241743.855 17844707.094 -12487448.268 10 0 60189 47700.00000 0 -12541859.238 16282724.765 -15073140.761 10 0 60189 48600.00000 0 -11878885.328 14383776.185 -17365349.036 10 0 60189 49500.00000 0 -11304727.680 12184948.466 -19319408.986 10 0 60189 50400.00000 0 -10864360.896 9734272.232 -20897250.794 10 0 60189 51300.00000 0 -10593821.352 7088943.186 -22068146.143 10 0 60189 52200.00000 0 -10518594.947 4313165.225 -22809310.045 10 0 60189 53100.00000 0 -10652468.534 1475705.095 -23106345.454 10 0 60189 54000.00000 0 -10996893.823 -1352739.373 -22953522.085 10 0 60189 54900.00000 0 -11540890.654 -4102247.667 -22353884.280 10 0 60189 55800.00000 0 -12261493.540 -6706348.778 -21319186.139 10 0 60189 56700.00000 0 -13124722.268 -9104546.022 -19869655.627 10 0 60189 57600.00000 0 -14087035.133 -11244589.803 -18033592.655 10 0 60189 58500.00000 0 -15097202.901 -13084404.263 -15846809.479 10 0 60189 59400.00000 0 -16098523.845 -14593588.605 -13351924.794 10 0 60189 60300.00000 0 -17031285.818 -15754431.839 -10597525.764 10 0 60189 61200.00000 0 -17835370.934 -16562400.241 -7637214.898 10 0 60189 62100.00000 0 -18452892.556 -17026079.124 -4528560.879 10 0 60189 63000.00000 0 -18830753.061 -17166573.471 -1331974.296 10 0 60189 63900.00000 0 -18923014.368 -17016394.680 1890469.274 10 0 60189 64800.00000 0 -18692981.339 -16617882.207 5076235.550 10 0 60189 65700.00000 0 -18114910.456 -16021228.205 8163543.516 10 0 60189 66600.00000 0 -17175272.111 -15282189.633 11092559.443 10 0 60189 67500.00000 0 -15873513.713 -14459585.037 13806550.038 10 0 60189 68400.00000 0 -14222291.767 -13612681.795 16252972.859 10 0 60189 69300.00000 0 -12247163.223 -12798583.668 18384483.606 10 0 60189 70200.00000 0 -9985748.751 -12069728.109 20159841.795 10 0 60189 71100.00000 0 -7486402.296 -11471597.711 21544698.411 10 0 60189 72000.00000 0 -4806441.477 -11040741.018 22512251.467 10 0 60189 72900.00000 0 -2010011.167 -10803184.862 23043757.851 10 0 60189 73800.00000 0 834332.546 -10773304.062 23128892.461 10 0 60189 74700.00000 0 3656219.450 -10953195.462 22765948.188 10 0 60189 75600.00000 0 6386137.521 -11332582.480 21961873.060 10 0 60189 76500.00000 0 8958071.429 -11889254.535 20732143.530 10 0 60189 77400.00000 0 11311999.385 -12590023.699 19100475.660 10 0 60189 78300.00000 0 13396146.052 -13392159.493 17098378.761 10 0 60189 79200.00000 0 15168898.882 -14245242.813 14764558.809 10 0 60189 80100.00000 0 16600308.682 -15093362.301 12144181.816 10 0 60189 81000.00000 0 17673112.102 -15877561.805 9288010.067 10 0 60189 81900.00000 0 18383233.261 -16538436.581 6251426.764 10 0 60189 82800.00000 0 18739743.239 -17018769.050 3093367.156 10 0 60189 83700.00000 0 18764278.804 -17266092.642 -124823.602 10 0 60189 84600.00000 0 18489944.497 -17235074.706 -3340583.780 10 0 60189 85500.00000 0 17959744.149 -16889616.566 -6491356.049 10 0 60190 0.00000 0 17224608.101 -16204580.478 -9515811.426 10 0 60190 900.00000 0 16341099.284 -15167068.250 -12355053.096 10 0 60190 1800.00000 0 15368896.640 -13777196.573 -14953771.545 10 0 60190 2700.00000 0 14368161.697 -12048333.278 -17261332.874 10 0 60190 3600.00000 0 13396901.381 -10006783.646 -19232774.047 10 0 60190 4500.00000 0 12508439.090 -7690938.216 -20829686.485 10 0 60190 5400.00000 0 11749101.724 -5149916.765 -22020969.959 10 0 60190 6300.00000 0 11156220.982 -2441764.476 -22783441.751 10 0 60190 7200.00000 0 10756533.721 368724.729 -23102289.117 10 0 60190 8100.00000 0 10565049.005 3212466.977 -22971356.299 10 0 60190 9000.00000 0 10584429.467 6018726.940 -22393260.784 10 0 60190 9900.00000 0 10804912.665 8717825.986 -21379336.833 10 0 60190 10800.00000 0 11204775.120 11243807.294 -19949407.832 10 0 60190 11700.00000 0 11751318.627 13536947.143 -18131392.315 10 0 60190 12600.00000 0 12402336.350 15546008.141 -15960751.799 10 0 60190 13500.00000 0 13107995.860 17230141.226 -13479791.704 10 0 60190 14400.00000 0 13813058.712 18560358.157 -10736829.452 10 0 60190 15300.00000 0 14459342.002 19520514.304 -7785246.516 10 0 60190 16200.00000 0 14988317.209 20107762.354 -4682443.473 10 0 60190 17100.00000 0 15343736.052 20332459.779 -1488718.900 10 0 60190 18000.00000 0 15474172.077 20217535.908 1733905.483 10 0 60190 18900.00000 0 15335370.533 19797347.125 4922890.177 10 0 60190 19800.00000 0 14892307.427 19116070.022 8016390.105 10 0 60190 20700.00000 0 14120871.048 18225701.550 10954450.013 10 0 60190 21600.00000 0 13009095.391 17183751.275 13680160.098 10 0 60190 22500.00000 0 11557893.725 16050723.377 16140749.957 10 0 60190 23400.00000 0 9781261.510 14887494.297 18288600.365 10 0 60190 24300.00000 0 7705939.953 13752695.854 20082154.312 10 0 60190 25200.00000 0 5370553.660 12700212.900 21486710.763 10 0 60190 26100.00000 0 2824257.523 11776899.510 22475086.955 10 0 60190 27000.00000 0 124947.937 11020608.314 23028137.506 10 0 60190 27900.00000 0 -2662888.850 10458614.454 23135121.160 10 0 60190 28800.00000 0 -5470603.617 10106499.294 22793908.662 10 0 60190 29700.00000 0 -8227987.506 9967540.070 22011027.888 10 0 60190 30600.00000 0 -10865945.700 10032630.837 20801545.107 10 0 60190 31500.00000 0 -13319132.233 10280738.257 19188784.000 10 0 60190 32400.00000 0 -15528438.010 10679873.672 17203886.836 10 0 60190 33300.00000 0 -17443229.792 11188541.506 14885225.015 10 0 60190 34200.00000 0 -19023247.592 11757604.070 12277668.993 10 0 60190 35100.00000 0 -20240081.716 12332485.212 9431730.380 10 0 60190 36000.00000 0 -21078167.669 12855620.704 6402591.614 10 0 60190 36900.00000 0 -21535256.906 13269052.347 3249041.173 10 0 60190 37800.00000 0 -21622343.229 13517056.187 32334.475 10 0 60190 38700.00000 0 -21363047.350 13548693.218 -3184997.558 10 0 60190 39600.00000 0 -20792485.092 13320173.650 -6340368.724 10 0 60190 40500.00000 0 -19955666.683 12796933.302 -9372362.219 10 0 60190 41400.00000 0 -18905494.625 11955332.571 -12221935.028 10 0 60190 42300.00000 0 -17700444.959 10783904.188 -14833577.478 10 0 60190 43200.00000 0 -16402030.270 9284095.138 -17156404.358 10 0 60190 44100.00000 0 -15072152.239 7470469.528 -19145155.350 10 0 60190 45000.00000 0 -13770456.210 5370362.169 -20761084.463 10 0 60190 45900.00000 0 -12551800.101 3022996.028 -21972720.568 10 0 60190 46800.00000 0 -11463944.941 478099.453 -22756483.881 10 0 60190 47700.00000 0 -10545564.718 -2205919.693 -23097146.246 10 0 60190 48600.00000 0 -9824659.463 -4964167.073 -22988126.351 10 0 60190 49500.00000 0 -9317438.096 -7727730.828 -22431614.356 10 0 60190 50400.00000 0 -9027717.564 -10426323.468 -21438523.839 10 0 60190 51300.00000 0 -8946862.683 -12990986.629 -20028272.413 10 0 60190 52200.00000 0 -9054268.155 -15356746.082 -18228395.697 10 0 60190 53100.00000 0 -9318361.213 -17465106.465 -16074002.669 10 0 60190 54000.00000 0 -9698081.310 -19266282.229 -13607083.461 10 0 60190 54900.00000 0 -10144773.108 -20721072.345 -10875683.593 10 0 60190 55800.00000 0 -10604411.653 -21802301.496 -7932961.295 10 0 60190 56700.00000 0 -11020064.640 -22495768.765 -4836146.812 10 0 60190 57600.00000 0 -11334486.899 -22800665.659 -1645424.520 10 0 60190 58500.00000 0 -11492736.777 -22729447.644 1577239.867 10 0 60190 59400.00000 0 -11444703.485 -22307166.352 4769303.745 10 0 60190 60300.00000 0 -11147438.478 -21570292.152 7868860.065 10 0 60190 61200.00000 0 -10567192.484 -20565078.049 10815834.119 10 0 60190 62100.00000 0 -9681072.399 -19345534.752 13553141.634 10 0 60190 63000.00000 0 -8478248.417 -17971102.682 16027786.227 10 0 60190 63900.00000 0 -6960660.684 -16504118.902 18191875.630 10 0 60190 64800.00000 0 -5143195.644 -15007185.010 20003538.035 10 0 60190 65700.00000 0 -3053324.247 -13540545.641 21427721.911 10 0 60190 66600.00000 0 -730216.315 -12159586.391 22436865.014 10 0 60190 67500.00000 0 1776633.138 -10912554.669 23011420.706 10 0 60190 68400.00000 0 4409209.976 -9838597.486 23140232.329 10 0 60190 69300.00000 0 7103146.027 -8966197.059 22820748.947 10 0 60190 70200.00000 0 9790155.194 -8312068.627 22059078.478 10 0 60190 71100.00000 0 12400641.411 -7880565.908 20869876.937 10 0 60190 72000.00000 0 14866371.968 -7663618.786 19276075.286 10 0 60190 72900.00000 0 17123106.772 -7641205.908 17308448.138 10 0 60190 73800.00000 0 19113075.470 -7782342.774 15005031.399 10 0 60190 74700.00000 0 20787200.085 -8046544.424 12410398.715 10 0 60190 75600.00000 0 22106970.871 -8385701.891 9574809.406 10 0 60190 76500.00000 0 23045896.949 -8746293.991 6553243.144 10 0 60190 77400.00000 0 23590470.615 -9071841.530 3404339.271 10 0 60190 78300.00000 0 23740604.241 -9305500.308 189260.759 10 0 60190 79200.00000 0 23509520.682 -9392682.910 -3029495.232 10 0 60190 80100.00000 0 22923101.072 -9283597.535 -6189316.746 10 0 60190 81000.00000 0 22018716.933 -8935595.131 -9228702.058 10 0 60190 81900.00000 0 20843595.442 -8315223.931 -12088465.607 10 0 60190 82800.00000 0 19452786.753 -7399902.593 -14712900.268 10 0 60190 83700.00000 0 17906819.305 -6179139.282 -17050872.300 10 0 60190 84600.00000 0 16269142.374 -4655243.251 -19056826.656 10 0 60190 85500.00000 0 14603464.274 -2843497.103 -20691682.211 10 0 60191 0.00000 0 12971099.044 -771781.063 -21923598.817 10 0 60191 900.00000 0 11428433.003 1520337.416 -22728601.456 10 0 60191 1800.00000 0 10024620.228 3983008.729 -23091047.649 10 0 60191 2700.00000 0 8799601.049 6557946.380 -23003931.293 10 0 60191 3600.00000 0 7782528.751 9180633.023 -22469015.520 10 0 60191 4500.00000 0 6990669.120 11782796.325 -21496793.020 10 0 60191 5400.00000 0 6428818.291 14295051.243 -20106274.924 10 0 60191 6300.00000 0 6089262.106 16649598.475 -18324612.738 10 0 60191 7200.00000 0 5952277.264 18782866.530 -16186561.219 10 0 60191 8100.00000 0 5987151.523 20637987.357 -13733793.074 10 0 60191 9000.00000 0 6153678.340 22167002.542 -11014079.377 10 0 60191 9900.00000 0 6404061.288 23332708.517 -8080352.191 10 0 60191 10800.00000 0 6685146.426 24110064.488 -4989668.222 10 0 60191 11700.00000 0 6940887.055 24487105.346 -1802094.220 10 0 60191 12600.00000 0 7114935.743 24465322.661 1420463.630 10 0 60191 13500.00000 0 7153253.348 24059499.289 4615463.132 10 0 60191 14400.00000 0 7006624.405 23297006.046 7720938.656 10 0 60191 15300.00000 0 6632972.445 22216591.354 10676699.199 10 0 60191 16200.00000 0 5999377.605 20866715.809 13425488.892 10 0 60191 17100.00000 0 5083711.549 19303502.311 15914087.899 10 0 60191 18000.00000 0 3875821.031 17588388.091 18094333.068 10 0 60191 18900.00000 0 2378210.269 15785576.903 19924039.565 10 0 60191 19800.00000 0 606193.239 13959397.442 21367806.764 10 0 60191 20700.00000 0 -1412491.122 12171677.545 22397693.927 10 0 60191 21600.00000 0 -3638585.722 10479242.641 22993753.754 10 0 60191 22500.00000 0 -6022707.691 8931641.488 23144414.336 10 0 60191 23400.00000 0 -8507169.987 7569192.722 22846702.750 10 0 60191 24300.00000 0 -11028158.352 6421432.450 22106306.165 10 0 60191 25200.00000 0 -13518175.093 5506026.626 20937469.058 10 0 60191 26100.00000 0 -15908650.007 4828192.933 19362727.892 10 0 60191 27000.00000 0 -18132611.596 4380655.973 17412487.384 10 0 60191 27900.00000 0 -20127308.798 4144137.602 15124445.301 10 0 60191 28800.00000 0 -21836674.957 4088362.112 12542875.524 10 0 60191 29700.00000 0 -23213531.690 4173534.418 9717781.912 10 0 60191 30600.00000 0 -24221440.573 4352229.493 6703938.115 10 0 60191 31500.00000 0 -24836124.686 4571613.739 3559831.075 10 0 60191 32400.00000 0 -25046399.682 4775904.562 346528.152 10 0 60191 33300.00000 0 -24854574.324 4908963.960 -2873510.270 10 0 60191 34200.00000 0 -24276302.691 4916915.698 -6037649.315 10 0 60191 35100.00000 0 -23339893.348 4750674.239 -9084304.976 10 0 60191 36000.00000 0 -22085103.904 4368276.917 -11954151.561 10 0 60191 36900.00000 0 -20561471.317 3736918.946 -14591286.660 10 0 60191 37800.00000 0 -18826248.179 2834603.317 -16944329.881 10 0 60191 38700.00000 0 -16942032.032 1651333.938 -18967432.972 10 0 60191 39600.00000 0 -14974187.876 189799.813 -20621180.793 10 0 60191 40500.00000 0 -12988172.743 -1534480.231 -21873365.021 10 0 60191 41400.00000 0 -11046875.209 -3493559.820 -22699615.143 10 0 60191 42300.00000 0 -9208081.941 -5647998.549 -23083874.301 10 0 60191 43200.00000 0 -7522177.667 -7948288.409 -23018710.837 10 0 60191 44100.00000 0 -6030174.867 -10336713.966 -22505459.641 10 0 60191 45000.00000 0 -4762155.260 -12749568.704 -21554190.930 10 0 60191 45900.00000 0 -3736187.519 -15119635.009 -20183507.432 10 0 60191 46800.00000 0 -2957765.357 -17378824.146 -18420174.365 10 0 60191 47700.00000 0 -2419788.018 -19460865.854 -16298589.881 10 0 60191 48600.00000 0 -2103082.201 -21303935.177 -13860106.777 10 0 60191 49500.00000 0 -1977441.564 -22853106.862 -11152219.146 10 0 60191 50400.00000 0 -2003138.144 -24062534.943 -8227630.384 10 0 60191 51300.00000 0 -2132840.123 -24897266.851 -5143221.246 10 0 60191 52200.00000 0 -2313853.432 -25334616.852 -1958938.577 10 0 60191 53100.00000 0 -2490591.152 -25365042.252 1263373.103 10 0 60191 54000.00000 0 -2607165.343 -24992486.807 4461173.995 10 0 60191 54900.00000 0 -2609991.107 -24234178.191 7572441.738 10 0 60191 55800.00000 0 -2450292.482 -23119889.238 10536870.780 10 0 60191 56700.00000 0 -2086404.272 -21690694.997 13297035.281 10 0 60191 57600.00000 0 -1485772.804 -19997278.516 15799493.451 10 0 60191 58500.00000 0 -626571.463 -18097856.713 17995812.615 10 0 60191 59400.00000 0 501136.832 -16055813.169 19843496.107 10 0 60191 60300.00000 0 1894739.147 -13937136.292 21306795.180 10 0 60191 61200.00000 0 3538942.075 -11807769.019 22357391.370 10 0 60191 62100.00000 0 5406177.517 -9730979.376 22974937.225 10 0 60191 63000.00000 0 7457528.849 -7764860.075 23147445.862 10 0 60191 63900.00000 0 9644140.324 -5960059.787 22871522.412 10 0 60191 64800.00000 0 11909052.718 -4357839.114 22152433.116 10 0 60191 65700.00000 0 14189390.717 -2988530.918 21004010.527 10 0 60191 66600.00000 0 16418812.889 -1870468.171 19448396.026 10 0 60191 67500.00000 0 18530124.020 -1009423.339 17515623.656 10 0 60191 68400.00000 0 20457942.502 -398582.342 15243052.050 10 0 60191 69300.00000 0 22141312.585 -19054.112 12674654.092 10 0 60191 70200.00000 0 23526153.040 159105.487 9860176.680 10 0 60191 71100.00000 0 24567439.933 175398.149 6854185.647 10 0 60191 72000.00000 0 25231031.690 76978.789 3715013.446 10 0 60191 72900.00000 0 25495059.123 -83577.412 503629.457 10 0 60191 73800.00000 0 25350820.975 -250742.047 -2717545.320 10 0 60191 74700.00000 0 24803146.103 -368629.772 -5885855.845 10 0 60191 75600.00000 0 23870205.897 -383613.098 -8939638.637 10 0 60191 76500.00000 0 22582783.755 -246843.718 -11819430.652 10 0 60191 77400.00000 0 20983031.582 83427.852 -14469136.859 10 0 60191 78300.00000 0 19122765.183 639834.228 -16837132.698 10 0 60191 79200.00000 0 17061370.035 1444261.818 -18877278.998 10 0 60191 80100.00000 0 14863405.598 2506680.823 -20549828.668 10 0 60191 81000.00000 0 12596009.073 3824485.552 -21822206.951 10 0 60191 81900.00000 0 10326207.867 5382374.337 -22669649.632 10 0 60191 82800.00000 0 8118253.793 7152775.248 -23075686.648 10 0 60191 83700.00000 0 6031090.835 9096800.638 -23032461.726 10 0 60191 84600.00000 0 4116062.362 11165691.074 -22540882.086 10 0 60191 85500.00000 0 2414953.389 13302688.470 -21610595.586 10 0 60192 0.00000 0 958449.081 15445259.893 -20259796.333 10 0 60192 900.00000 0 -234927.840 17527580.069 -18514862.150 10 0 60192 1800.00000 0 -1159355.904 19483165.683 -16409833.335 10 0 60192 2700.00000 0 -1821711.737 21247554.899 -13985740.919 10 0 60192 3600.00000 0 -2241025.079 22760916.961 -11289799.718 10 0 60192 4500.00000 0 -2447417.793 23970483.782 -8374481.766 10 0 60192 5400.00000 0 -2480573.476 24832701.640 -5296488.841 10 0 60192 6300.00000 0 -2387804.078 25315013.260 -2115644.597 10 0 60192 7200.00000 0 -2221796.801 25397196.132 1106271.549 10 0 60192 8100.00000 0 -2038137.739 25072201.798 4306725.680 10 0 60192 9000.00000 0 -1892717.876 24346461.853 7423642.155 10 0 60192 9900.00000 0 -1839131.611 23239648.778 10396604.175 10 0 60192 10800.00000 0 -1926177.920 21783902.572 13168019.007 10 0 60192 11700.00000 0 -2195569.604 20022556.284 15684225.717 10 0 60192 12600.00000 0 -2679946.959 18008414.180 17896524.588 10 0 60192 13500.00000 0 -3401279.302 15801654.626 19762109.255 10 0 60192 14400.00000 0 -4369721.348 13467444.805 21244884.617 10 0 60192 15300.00000 0 -5582972.551 11073366.031 22316155.842 10 0 60192 16200.00000 0 -7026166.594 8686755.735 22955176.271 10 0 60192 17100.00000 0 -8672296.467 6372075.325 23149544.523 10 0 60192 18000.00000 0 -10483158.467 4188411.843 22895443.766 10 0 60192 18900.00000 0 -12410777.254 2187215.695 22197718.769 10 0 60192 19800.00000 0 -14399254.238 410367.041 21069789.061 10 0 60192 20700.00000 0 -16386964.053 -1111349.968 19533399.288 10 0 60192 21600.00000 0 -18309009.343 -2359302.513 17618210.627 10 0 60192 22500.00000 0 -20099833.001 -3327550.669 15361239.906 10 0 60192 23400.00000 0 -21695880.009 -4022852.855 12806155.935 10 0 60192 24300.00000 0 -23038198.365 -4464135.069 10002445.269 10 0 60192 25200.00000 0 -24074870.479 -4681446.051 7004462.346 10 0 60192 26100.00000 0 -24763172.820 -4714442.176 3870381.483 10 0 60192 27000.00000 0 -25071372.431 -4610465.806 661070.458 10 0 60192 27900.00000 0 -24980083.669 -4422298.333 -2561092.615 10 0 60192 28800.00000 0 -24483126.769 -4205683.193 -5733435.864 10 0 60192 29700.00000 0 -23587850.619 -4016724.383 -8794219.439 10 0 60192 30600.00000 0 -22314904.805 -3909271.561 -11683845.791 10 0 60192 31500.00000 0 -20697469.324 -3932403.775 -14346029.800 10 0 60192 32400.00000 0 -18779973.506 -4128119.825 -16728904.920 10 0 60192 33300.00000 0 -16616357.416 -4529334.593 -18786042.799 10 0 60192 34200.00000 0 -14267948.546 -5158267.676 -20477365.643 10 0 60192 35100.00000 0 -11801042.915 -6025293.890 -21769932.934 10 0 60192 36000.00000 0 -9284292.101 -7128305.510 -22638586.838 10 0 60192 36900.00000 0 -6786005.901 -8452614.210 -23066443.546 10 0 60192 37800.00000 0 -4371483.580 -9971397.713 -23045221.070 10 0 60192 38700.00000 0 -2100485.249 -11646672.961 -22575397.331 10 0 60192 39600.00000 0 -24948.790 -13430755.231 -21666195.776 10 0 60192 40500.00000 0 1812952.958 -15268142.100 -20335399.209 10 0 60192 41400.00000 0 3382334.516 -17097743.127 -18608995.880 10 0 60192 42300.00000 0 4664637.291 -18855361.555 -16520665.182 10 0 60192 43200.00000 0 5654144.512 -20476323.680 -14111113.444 10 0 60192 44100.00000 0 6357951.953 -21898145.407 -11427273.222 10 0 60192 45000.00000 0 6795397.806 -23063123.892 -8521382.238 10 0 60192 45900.00000 0 6996977.871 -23920745.521 -5449960.423 10 0 60192 46800.00000 0 7002793.843 -24429809.263 -2272705.521 10 0 60192 47700.00000 0 6860601.998 -24560176.563 948670.702 10 0 60192 48600.00000 0 6623546.282 -24294074.829 4151642.556 10 0 60192 49500.00000 0 6347672.698 -23626900.424 7274083.221 10 0 60192 50400.00000 0 6089330.863 -22567488.194 10255466.506 10 0 60192 51300.00000 0 5902572.859 -21137836.942 13038034.392 10 0 60192 52200.00000 0 5836659.242 -19372302.898 15567908.131 10 0 60192 53100.00000 0 5933777.184 -17316295.283 17796122.017 10 0 60192 54000.00000 0 6227066.509 -15024528.527 19679560.747 10 0 60192 54900.00000 0 6739036.277 -12558903.682 21181783.325 10 0 60192 55800.00000 0 7480438.179 -9986106.613 22273718.718 10 0 60192 56700.00000 0 8449644.011 -7375021.811 22934220.932 10 0 60192 57600.00000 0 9632553.613 -4794067.926 23150473.695 10 0 60192 58500.00000 0 11003037.875 -2308564.122 22918237.584 10 0 60192 59400.00000 0 12523899.382 21765.037 22241935.061 10 0 60192 60300.00000 0 14148312.025 2145044.202 21134571.632 10 0 60192 61200.00000 0 15821681.046 4019169.074 19617494.073 10 0 60192 62100.00000 0 17483847.553 5613316.716 17719989.435 10 0 60192 63000.00000 0 19071546.968 6908982.311 15478731.369 10 0 60192 63900.00000 0 20521019.884 7900499.596 12937083.103 10 0 60192 64800.00000 0 21770666.985 8595023.472 10144269.211 10 0 60192 65700.00000 0 22763637.151 9011975.535 7154430.939 10 0 60192 66600.00000 0 23450240.012 9181975.673 4025582.492 10 0 60192 67500.00000 0 23790080.972 9145304.623 818487.921 10 0 60192 68400.00000 0 23753827.796 8949962.274 -2404519.799 10 0 60192 69300.00000 0 23324532.987 8649403.962 -5580754.288 10 0 60192 70200.00000 0 22498454.682 8300050.920 -8648401.658 10 0 60192 71100.00000 0 21285339.826 7958681.007 -11547732.116 10 0 60192 72000.00000 0 19708156.202 7679811.252 -14222272.592 10 0 60192 72900.00000 0 17802283.318 7513184.239 -16619916.532 10 0 60192 73800.00000 0 15614195.147 7501466.130 -18693948.209 10 0 60192 74700.00000 0 13199689.458 7678255.099 -20403960.752 10 0 60192 75600.00000 0 10621737.635 8066485.693 -21716649.366 10 0 60192 76500.00000 0 7948044.989 8677297.688 -22606463.911 10 0 60192 77400.00000 0 5248423.730 9509418.126 -23056107.973 10 0 60192 78300.00000 0 2592088.478 10549083.311 -23056874.768 10 0 60192 79200.00000 0 44987.284 11770504.492 -22608813.548 10 0 60192 80100.00000 0 -2332720.605 13136857.888 -21720723.620 10 0 60192 81000.00000 0 -4488935.404 14601757.371 -20409976.484 10 0 60192 81900.00000 0 -6381541.925 16111147.798 -18702169.972 10 0 60192 82800.00000 0 -7979909.886 17605539.043 -16630621.607 10 0 60192 83700.00000 0 -9265908.188 19022486.524 -14235711.486 10 0 60192 84600.00000 0 -10234392.542 20299213.590 -11564087.968 10 0 60192 85500.00000 0 -10893148.021 21375265.156 -8667752.154 99